Weather History for KGFK - April, 2014

Change the Weather History Date:

Friday, April 25, 2014

  Actual Average Record
Temperature  
Mean Temperature 42 °F 47 °F  
Max Temperature 49 °F 60 °F 81 °F (1977)
Min Temperature 35 °F 34 °F 18 °F (1958)
Degree Days  
Heating Degree Days 23 18  
Month to date heating degree days 710 610  
Since 1 July heating degree days 10060 8995  
Cooling Degree Days 0 0  
Month to date cooling degree days 0 0  
Year to date cooling degree days 0 0  
Moisture  
Dew Point 36 °F    
Average Humidity 81    
Maximum Humidity 100    
Minimum Humidity 61    
Precipitation  
Precipitation 0.00 in 0.05 in 0.87 in (1935)
Month to date precipitation 0.94 0.77  
Year to date precipitation 2.94 2.80  
Snow  
Snow 0.00 in 0.10 in 3.00 in (1960)
Month to date snowfall 1.1 2.4  
Since 1 July snowfall 60.3 46.8  
Snow Depth 0.00 in    
Sea Level Pressure  
Sea Level Pressure 29.82 in    
Wind  
Wind Speed 7 mph (NNE)    
Max Wind Speed 13 mph    
Max Gust Speed 15 mph    
Visibility 6 miles    
Events Fog    
T = Trace of Precipitation, MM = Missing Value Source: NWS Daily Summary

Daily Weather History Graph

Daily Weather History Graph

Search for Another Location

Airport or City:

Trip Planner

Search our weather history database for the weather conditions in past years. The results will help you decide how hot, cold, wet, or windy it might be!

Date:

Astronomy

Apr. 25, 2014 Rise Set
Actual Time 6:20 AM CDT 8:33 PM CDT
Civil Twilight 5:47 AM CDT 9:07 PM CDT
Nautical Twilight 5:05 AM CDT 9:49 PM CDT
Astronomical Twilight 4:17 AM CDT 10:37 PM CDT
Moon 4:28 AM CDT (4/25) 4:41 PM CDT (4/25)
Length of Visible Light 15h 20m
Length of Day
14h 12m
Waning Crescent, 15% of the Moon is Illuminated
Apr 25
Waning Crescent
Apr 29
New
May 6
First Quarter
May 14
Full
May 21
Last Quarter

Hourly Weather History & Observations

Time (CDT) Temp. Windchill Dew Point Humidity Pressure Visibility Wind Dir Wind Speed Gust Speed Precip Events Conditions
12:12 AM 39.2 °F 35.0 °F 37.4 °F 93% 29.71 in 0.8 mi North 5.8 mph - N/A   Mist
12:53 AM 39.0 °F 35.7 °F 37.9 °F 96% 29.74 in 0.5 mi NNE 4.6 mph - N/A Fog Fog
1:36 AM 37.4 °F 33.8 °F 37.4 °F 100% 29.72 in 1.2 mi North 4.6 mph - N/A   Overcast
1:53 AM 37.9 °F - 37.9 °F 100% 29.75 in 1.0 mi Calm Calm - N/A   Overcast
2:14 AM 37.4 °F - 37.4 °F 100% 29.72 in 3.0 mi Calm Calm - N/A   Overcast
2:44 AM 37.4 °F - 37.4 °F 100% 29.72 in 2.5 mi Calm Calm - N/A   Overcast
2:53 AM 37.9 °F - 37.0 °F 97% 29.75 in 1.0 mi Calm Calm - N/A   Overcast
3:00 AM 37.4 °F 34.9 °F 37.4 °F 100% 29.72 in 0.8 mi North 3.5 mph - N/A   Overcast
3:09 AM 37.4 °F 34.9 °F 37.4 °F 100% 29.73 in 0.8 mi North 3.5 mph - N/A   Overcast
3:53 AM 37.0 °F 31.0 °F 36.0 °F 96% 29.76 in 0.8 mi NNE 8.1 mph - N/A   Mist
4:14 AM 37.4 °F 32.1 °F 35.6 °F 93% 29.74 in 1.2 mi NNE 6.9 mph - N/A   Overcast
4:53 AM 37.0 °F 34.5 °F 36.0 °F 96% 29.77 in 1.2 mi NNW 3.5 mph - N/A   Overcast
5:32 AM 37.4 °F 33.8 °F 35.6 °F 93% 29.75 in 2.5 mi North 4.6 mph - N/A   Overcast
5:42 AM 37.4 °F 32.8 °F 35.6 °F 93% 29.75 in 1.5 mi North 5.8 mph - N/A   Overcast
5:53 AM 37.0 °F 32.4 °F 36.0 °F 96% 29.79 in 0.8 mi North 5.8 mph - N/A   Overcast
6:03 AM 37.4 °F 33.8 °F 35.6 °F 93% 29.76 in 1.0 mi NNE 4.6 mph - N/A   Overcast
6:27 AM 35.6 °F 30.7 °F 35.6 °F 100% 29.77 in 2.0 mi North 5.8 mph - N/A   Overcast
6:42 AM 35.6 °F 31.7 °F 35.6 °F 100% 29.77 in 4.0 mi North 4.6 mph - N/A   Overcast
6:53 AM 36.0 °F 31.1 °F 36.0 °F 100% 29.80 in 4.0 mi North 5.8 mph - N/A   Overcast
7:53 AM 36.0 °F 33.3 °F 35.1 °F 97% 29.82 in 9.0 mi NNW 3.5 mph - N/A   Overcast
8:19 AM 35.6 °F 31.7 °F 35.6 °F 100% 29.80 in 8.0 mi NNW 4.6 mph - N/A   Overcast
8:53 AM 36.0 °F 29.6 °F 35.1 °F 97% 29.83 in 10.0 mi NNE 8.1 mph - N/A   Overcast
9:28 AM 37.4 °F 31.4 °F 35.6 °F 93% 29.81 in 10.0 mi North 8.1 mph - N/A   Overcast
9:53 AM 39.0 °F 33.4 °F 35.1 °F 86% 29.85 in 10.0 mi NNE 8.1 mph - N/A   Overcast
10:33 AM 39.2 °F 33.0 °F 35.6 °F 87% 29.83 in 10.0 mi North 9.2 mph - N/A   Overcast
10:53 AM 39.9 °F 34.5 °F 34.0 °F 79% 29.86 in 10.0 mi NNE 8.1 mph - N/A   Overcast
11:53 AM 43.0 °F 37.7 °F 35.1 °F 74% 29.87 in 10.0 mi NE 9.2 mph - N/A   Overcast
12:35 PM 44.6 °F 40.7 °F 35.6 °F 71% 29.84 in 10.0 mi NNE 6.9 mph - N/A   Overcast
12:53 PM 45.0 °F 40.6 °F 36.0 °F 71% 29.87 in 10.0 mi NE 8.1 mph - N/A   Overcast
1:53 PM 46.9 °F - 36.0 °F 66% 29.88 in 10.0 mi NE 10.4 mph - N/A   Overcast
2:53 PM 46.9 °F - 36.0 °F 66% 29.89 in 10.0 mi NE 6.9 mph - N/A   Overcast
3:53 PM 46.9 °F - 35.1 °F 63% 29.91 in 10.0 mi NE 6.9 mph - N/A   Overcast
4:53 PM 48.0 °F - 35.1 °F 61% 29.90 in 10.0 mi NE 6.9 mph - N/A   Overcast
5:53 PM 48.0 °F - 35.1 °F 61% 29.91 in 10.0 mi NE 10.4 mph - N/A   Overcast
6:53 PM 46.9 °F - 35.1 °F 63% 29.92 in 10.0 mi NE 6.9 mph - N/A   Mostly Cloudy
7:53 PM 45.0 °F 41.2 °F 34.0 °F 65% 29.94 in 10.0 mi NE 6.9 mph - N/A   Scattered Clouds
8:53 PM 44.1 °F 39.5 °F 35.1 °F 71% 29.97 in 10.0 mi NE 8.1 mph - N/A   Mostly Cloudy
9:53 PM 41.0 °F 35.8 °F 34.0 °F 76% 29.99 in 10.0 mi ENE 8.1 mph - N/A   Mostly Cloudy
10:53 PM 39.9 °F 35.8 °F 33.1 °F 77% 29.99 in 10.0 mi ENE 5.8 mph - N/A   Partly Cloudy
11:53 PM 37.0 °F 33.3 °F 32.0 °F 82% 29.99 in 10.0 mi ENE 4.6 mph - N/A   Clear